Inquirer Daily News

Weather

Get conditions and forecasts for any City, State, ZIP code or Country:  
Northeast Philadelphia, PA
on Sunday, January 6, 2013

Sunday
Previous Day Next Day
Daily Summary
 ActualAverage (KTTN)Record (KTTN)
Temperature
Mean Temperature °F 31°F  
Max Temperature 48°F 39°F 72°F (2007)
Min Temperature 32°F 23°F 5°F (1904)
Degree Days
Heating Degree Days 25 34  
Month to date heating degree days 203  
Since 1 July heating degree days 2098  
Cooling Degree Days 0 0  
Month to date cooling degree days 0  
Year to date cooling degree days 0  
Moisture
Dew Point 29°F   
Average Humidity 73    
Maximum Humidity 96    
Minimum Humidity 41    
Precipitation
Precipitation 0.05 in 0.12 in 1.66 in (1962)
Month to date precipitation 0.69  
Year to date precipitation 0.69  
Wind
Wind Speed 3 mph   
Max Wind Speed 13 mph   
Max Gust Speed mph   
Visibility 6 miles   
Events Snow   

Key: T is trace of precipitation, MM is missing value
Source: NWS Daily Summary
Time(EST)TemperatureDew PointHumidity Pressure Visibility Wind DirectionWind SpeedGust SpeedPrecipitationEvents Conditions
12:54 AM 33.1°F 24.1°F 70% 30.25 in 9.0 miles Calm Calm - N/A   Overcast
1:54 AM 33.1°F 24.1°F 70% 30.22 in 9.0 miles ESE 3.5 mph - N/A   Overcast
2:54 AM 34.0°F 26.1°F 73% 30.22 in 5.0 miles South 4.6 mph - 0.00 in Snow Light Snow
3:02 AM 33.8°F 28.4°F 81% 30.20 in 1.8 miles Variable 4.6 mph - 0.00 in Snow Light Snow
3:20 AM 33.8°F 30.2°F 87% 30.20 in 1.0 miles Calm Calm - 0.01 in Snow Light Snow
3:29 AM 33.8°F 30.2°F 87% 30.19 in 0.8 miles Calm Calm - 0.02 in Snow Light Snow
3:37 AM 32.0°F 30.2°F 93% 30.19 in 1.0 miles South 3.5 mph - 0.02 in Snow Light Snow
3:49 AM 32.0°F 30.2°F 93% 30.18 in 1.2 miles Calm Calm - 0.03 in Snow Light Snow
3:54 AM 32.0°F 30.9°F 96% 30.18 in 1.0 miles Variable 3.5 mph - 0.03 in Snow Light Snow
4:18 AM 33.8°F 30.2°F 87% 30.16 in 2.5 miles Variable 4.6 mph - N/A Snow Light Snow
4:40 AM 33.8°F 32.0°F 93% 30.16 in 3.0 miles Calm Calm - 0.01 in   Overcast
4:54 AM 33.1°F 32.0°F 96% 30.15 in 3.0 miles Variable 3.5 mph - 0.01 in   Overcast
5:37 AM 33.8°F 32.0°F 93% 30.15 in 5.0 miles SW 3.5 mph - N/A   Overcast
5:54 AM 33.1°F 32.0°F 96% 30.15 in 5.0 miles SW 3.5 mph - N/A   Overcast
6:54 AM 34.0°F 32.0°F 92% 30.16 in 4.0 miles Calm Calm - N/A   Overcast
7:52 AM 33.8°F 30.2°F 87% 30.15 in 3.0 miles West 3.5 mph - N/A   Overcast
7:54 AM 33.8°F 30.2°F 87% 30.15 in 3.0 miles West 4.6 mph - N/A   Overcast
8:13 AM 33.8°F 30.2°F 87% 30.15 in 3.0 miles West 4.6 mph - N/A   Scattered Clouds
8:54 AM 35.1°F 32.0°F 89% 30.15 in 3.0 miles WSW 4.6 mph - 0.01 in   Clear
9:54 AM 37.0°F 32.0°F 82% 30.14 in 7.0 miles SW 8.1 mph - N/A   Clear
10:54 AM 41.0°F 33.1°F 73% 30.12 in 9.0 miles SW 5.8 mph - N/A   Clear
11:54 AM 43.0°F 30.9°F 62% 30.08 in 10.0 miles WSW 8.1 mph - N/A   Clear
12:54 PM 46.4°F 28.4°F 50% 30.05 in 10.0 miles WSW 5.8 mph - N/A   Clear
1:54 PM 46.0°F 27.0°F 47% 30.03 in 10.0 miles SW 9.2 mph - N/A   Partly Cloudy
2:54 PM 48.0°F 27.0°F 44% 30.02 in 10.0 miles WSW 10.4 mph - N/A   Clear
3:54 PM 46.9°F 24.1°F 41% 30.02 in 10.0 miles West 12.7 mph - N/A   Clear
4:54 PM 44.1°F 24.1°F 45% 30.03 in 10.0 miles NW 4.6 mph - N/A   Clear
5:54 PM 41.0°F 25.0°F 53% 30.05 in 10.0 miles Calm Calm - N/A   Overcast
6:54 PM 41.0°F 27.0°F 57% 30.06 in 10.0 miles West 3.5 mph - N/A   Overcast
7:54 PM 41.0°F 27.0°F 57% 30.06 in 10.0 miles West 3.5 mph - N/A   Overcast
8:54 PM 43.0°F 26.1°F 51% 30.06 in 10.0 miles West 8.1 mph - N/A   Overcast
10:54 PM 43.0°F 26.1°F 51% 30.09 in 10.0 miles West 5.8 mph - N/A   Overcast
11:54 PM 42.1°F 26.1°F 53% 30.11 in 10.0 miles West 6.9 mph - N/A   Overcast
Astronomy
Sunrise:07:22 AM (EST) Moon Rise:01:33 AM (EST)1/6
Sunset:04:50 PM (EST) Moon Set:12:15 PM (EST)1/6
Moon Phase
Jan. 06 Jan. 11 Jan. 18 Jan. 26 Feb. 03

Copyright © 2014 The Weather Underground, Inc.